Regional Weather Roundup
Issued by NWS Charleston, SC

Current Version | Previous Version | Text Only | Print | Product List | Glossary Off
Versions: 1 2 3 4 5 6 7 8 9 10 11 12 13 14 15 16 17 18 19 20 21 22 23 24 25 26 27 28 29 30 31 32 33 34 35 36 37 38 39 40 41 42 43 44 45 46 47 48 49 50

161
ASUS42 KCHS 231012
RWRCHS

REGIONAL WEATHER ROUNDUP
NATIONAL WEATHER SERVICE CHARLESTON SC
500 AM EST THU NOV 23 2017

NOTE: "FAIR" INDICATES FEW OR NO CLOUDS BELOW 12,000 FEET WITH NO
SIGNIFICANT WEATHER AND/OR OBSTRUCTIONS TO VISIBILITY.

NOT ALL STATIONS ARE QUALITY CONTROLLED. USE DATA WITH CAUTION...
ESPECIALLY DEWPOINT OBSERVATIONS.

SCZ027-030-031-034>040-042>050-231100-
...SOUTHEAST SOUTH CAROLINA...

CITY           SKY/WX    TMP DP  RH WIND       PRES   REMARKS
N CHARLESTON   MOCLDY    50  37  61 NE13      30.05F
WATERFRONT PRK NOT AVBL
JOHNS ISLAND   FAIR      52  39  62 N8        30.05F
PINOPOLIS        N/A     48  39  71 NE10      30.01R
MONCKS CORNER  FAIR      46  32  57 NE7       30.08S
SUMMERVILLE    FAIR      46  37  71 N5        30.08F
BEAUFORT MCAS  CLOUDY    53  42  66 NE9       30.04S
BEAUFORT ARPT  FAIR      54  43  66 NE13      30.04S
HILTON HEAD IS NOT AVBL
WALTERBORO     CLOUDY    48  36  61 NE6       30.07S
ALLENDALE      FAIR      50  37  62 VRB5      30.06S

...SOUTHERN MIDLANDS AND PEE DEE...

CITY           SKY/WX    TMP DP  RH WIND       PRES   REMARKS
GEORGETOWN     FAIR      46  37  71 N6        30.09R
KINGSTREE      FAIR      43  32  65 N5        30.10S
ORANGEBURG     MOCLDY    47  33  58 NE8       30.08F
BARNWELL         N/A     52  36  54 NE9       30.07F
AIKEN          FAIR      45  32  61 NE8       30.10F
MANNING        FAIR      45  18  33 MISG      30.10S
COLUMBIA       CLOUDY    49  29  46 E10       30.09F
SUMTER         PTCLDY    44  30  57 NE8       30.07F
FLORENCE       CLOUDY    43  31  62 NE6       30.12R
MYRTLE BEACH   PTCLDY    47  37  68 NE9G18    30.10R
N MYRTLE BEACH CLOUDY    46  38  73 NE12      30.08S

$$

GAZ063-065-086>088-099>101-113>116-118-119-134>141-150-231100-
...SOUTHEAST GEORGIA...

CITY           SKY/WX    TMP DP  RH WIND       PRES   REMARKS
SAVANNAH ARPT  CLOUDY    56  44  64 NE8       30.02F
HUNTER AAF     CLOUDY    57  45  64 NE8       29.98F
FORT STEWART   CLOUDY    55  48  76 NE3       30.00R
STATESBORO     LGT RAIN  55  40  58 CALM      30.04F
SYLVANIA       CLOUDY    53  44  72 E7        30.06S
CLAXTON        PTSUNNY   57  46  67 N6        30.03S

...CSRA...CENTRAL AND FAR SOUTHEAST GEORGIA...

CITY           SKY/WX    TMP DP  RH WIND       PRES   REMARKS
THOMSON        CLOUDY    48  38  67 SE6       30.12F
AUGUSTA-BUSH   CLOUDY    51  34  52 NE6       30.07F
AUGUSTA-DANIEL MOCLDY    51  32  48 NE7       30.09R
SWAINSBORO     CLOUDY    55  41  58 E9        30.05S
VIDALIA        DRIZZLE   55  50  82 NE6       30.03S
EASTMAN        CLOUDY    58  42  55 E7        30.05S
HAZLEHURST     DRIZZLE   57  55  93 E3        30.01R
ALMA           LGT RAIN  59  57  93 CALM      30.00R FOG
WAYCROSS       RAIN      60  57  90 CALM      30.00S
JESUP          LGT RAIN  59  55  88 CALM      30.01S
BAXLEY         LGT RAIN  55  55 100 NE6       30.01S
BRUNSWICK      CLOUDY    61  55  82 N7        29.99S
SAINT SIMONS   MOCLDY    63  61  93 NE10      29.98R

$$

SCZ027-028-034-036>038-045-046-048>050-GAZ119-141-231100-
...LAKE AND SUPPLEMENTAL COASTAL OBSERVATIONS...

STATION/POSITION TIME  TEMP    WIND        PRES    WAVE   SWELL
                       AIR SEA DIR/SP/G            HT/PER HT/PER/DIR
                 (UTC) (F)     (DEG/KT/KT) (MB)    (FT/S) (FT/S/D)
WINYAH BAY       0845   49      20/  5     1018.0
LAKE MURRAY      0920   47      40/  3/  5 1018.6
ACE BASIN NERRS  0845   53      10/  3     1018.0
FORT PULASKI     0942   58 61   50/ 12/ 15 1016.7F
SAPELO ISLAND    0900   60      40/  7     1015.0

$$

ANZ835-935-AMZ111-154-330-350-352-354-370-450-454-472-231100-
...C-MAN AND BUOY OBSERVATIONS...

STATION/POSITION TIME  TEMP    WIND        PRES    WAVE   SWELL
                       AIR SEA DIR/SP/G            HT/PER HT/PER/DIR
                 (UTC) (F)     (DEG/KT/KT) (MB)    (FT/S) (FT/S/D)
BUOY 41004       0950           40/ 17/ 21 1016.0S   6/ 6   3/110/ 9
BUOY 41008       0950   66 67   60/ 17/ 21 1014.6F   4/ 8   3/120/ 8
FOLLY BEACH CMAN 0900   54      20/ 12/ 15 1018.3R
CAPERS NEARSHORE 0908   53 62   30/ 16/ 23 1017.1R
FRIPP NEARSHORE  0908   57 62   30/ 14/ 21 1016.0R


STATION/POSITION TIME  TEMP    WIND        PRES    WAVE   SWELL
                       AIR SEA DIR/SP/G            HT/PER HT/PER/DIR
                 (UTC) (F)     (DEG/KT/KT) (MB)    (FT/S) (FT/S/D)
5E ST. MARYS GA  0930      66                N/A     4/ 9
FRYING PAN BUOY  0950   61      30/ 21/ 27 1017.1R   6/ 9   3/120/ 9
BUOY 41025       0950   56 72   10/ 16/ 21 1018.5R   7/ 9   5/120/ 9
CAPE LOOKOUT NC  0900           20/ 13/ 16 1018.9F
BUOY 41002       0950   72 76   30/ 17/ 21 1013.7F   6/ 9   3/130/ 9
BUOY 41010       NOT AVBL
ST AUGUSTINE FL  1000   68 69   30/ 18/ 20 1013.2F


$$




USA.gov is the U.S. government's official web portal to all federal, state and local government web resources and services.